Location: Gad�tanya
(48.0500°N, 20.8500°E)
Time: 11:01:42
(UTC+00:00)

Cosmos 2123 Rocket - Pass Details

Date: 05 July 2020
Orbit: 961 x 993 km, 82.9° (Epoch: 14 August)

Event Time Altitude Azimuth Distance (km) Brightness Sun altitude
Rises 23:02:47 0° 353° (N) 3,673 8.5 -19.1°
Reaches altitude 10° 23:05:22 10° 358° (N) 2,718 7.6 -19.1°
Maximum altitude 23:11:29 57° 76° (ENE) 1,129 4.4 -19.0°
Enters shadow 23:15:26 22° 148° (SSE) 1,959 5.2 -18.9°
